TimeCST,TemperatureF,Dew PointF,Humidity,Sea Level PressureIn,VisibilityMPH,Wind Direction,Wind SpeedMPH,Gust SpeedMPH,PrecipitationIn,Events,Conditions,WindDirDegrees,DateUTC
12:15 AM,24.8,19.4,80,29.73,10.0,ESE,11.5,-,N/A,,Clear,120,2012-12-15 06:15:00
12:36 AM,24.8,19.4,80,29.72,10.0,SE,9.2,-,N/A,,Clear,130,2012-12-15 06:36:00
12:55 AM,24.8,19.4,80,29.71,10.0,SE,8.1,-,N/A,,Clear,130,2012-12-15 06:55:00
1:16 AM,24.8,19.4,80,29.71,10.0,SE,8.1,-,N/A,,Clear,130,2012-12-15 07:16:00
1:35 AM,24.8,19.4,80,29.70,10.0,ESE,8.1,-,N/A,,Clear,120,2012-12-15 07:35:00
1:55 AM,24.8,21.2,86,29.69,10.0,ESE,9.2,-,N/A,,Clear,120,2012-12-15 07:55:00
2:15 AM,24.8,21.2,86,29.70,10.0,SE,8.1,-,N/A,,Clear,130,2012-12-15 08:15:00
2:36 AM,24.8,21.2,86,29.70,10.0,SE,8.1,-,N/A,,Clear,130,2012-12-15 08:36:00
2:55 AM,24.8,21.2,86,29.70,7.0,SE,5.8,-,N/A,,Clear,130,2012-12-15 08:55:00
3:16 AM,24.8,21.2,86,29.69,7.0,ESE,4.6,-,N/A,,Clear,120,2012-12-15 09:16:00
3:35 AM,24.8,21.2,86,29.70,7.0,SE,3.5,-,N/A,,Clear,130,2012-12-15 09:35:00
3:55 AM,24.8,21.2,86,29.69,7.0,Calm,Calm,-,N/A,,Clear,0,2012-12-15 09:55:00
4:15 AM,24.8,21.2,86,29.69,7.0,Calm,Calm,-,N/A,,Clear,0,2012-12-15 10:15:00
4:35 AM,24.8,21.2,86,29.68,7.0,Calm,Calm,-,N/A,,Clear,0,2012-12-15 10:35:00
4:55 AM,24.8,21.2,86,29.69,7.0,Calm,Calm,-,N/A,,Clear,0,2012-12-15 10:55:00
5:15 AM,24.8,21.2,86,29.69,7.0,Calm,Calm,-,N/A,,Clear,0,2012-12-15 11:15:00
5:35 AM,24.8,21.2,86,29.69,7.0,Calm,Calm,-,N/A,,Clear,0,2012-12-15 11:35:00
6:16 AM,24.8,21.2,86,29.69,7.0,Calm,Calm,-,N/A,,Mostly Cloudy,0,2012-12-15 12:16:00
6:35 AM,26.6,24.8,93,29.69,7.0,Calm,Calm,-,N/A,,Overcast,0,2012-12-15 12:35:00
6:55 AM,26.6,24.8,93,29.69,7.0,Calm,Calm,-,N/A,,Overcast,0,2012-12-15 12:55:00
7:15 AM,28.4,24.8,86,29.68,7.0,Calm,Calm,-,N/A,,Overcast,0,2012-12-15 13:15:00
7:35 AM,28.4,24.8,86,29.67,7.0,Calm,Calm,-,N/A,,Overcast,0,2012-12-15 13:35:00
7:55 AM,28.4,24.8,86,29.66,7.0,Calm,Calm,-,N/A,,Scattered Clouds,0,2012-12-15 13:55:00
8:15 AM,26.6,24.8,93,29.65,7.0,Calm,Calm,-,N/A,,Scattered Clouds,0,2012-12-15 14:15:00
8:35 AM,28.4,24.8,86,29.65,7.0,Calm,Calm,-,N/A,,Mostly Cloudy,0,2012-12-15 14:35:00
8:55 AM,28.4,26.6,93,29.65,5.0,Calm,Calm,-,N/A,,Overcast,0,2012-12-15 14:55:00
9:16 AM,28.4,26.6,93,29.64,5.0,Calm,Calm,-,N/A,,Overcast,0,2012-12-15 15:16:00
9:35 AM,28.4,26.6,93,29.64,5.0,Calm,Calm,-,N/A,,Overcast,0,2012-12-15 15:35:00
9:55 AM,30.2,26.6,86,29.64,5.0,Calm,Calm,-,N/A,,Overcast,0,2012-12-15 15:55:00
10:15 AM,30.2,26.6,86,29.64,5.0,Calm,Calm,-,N/A,,Mostly Cloudy,0,2012-12-15 16:15:00
10:35 AM,30.2,26.6,86,29.64,5.0,Calm,Calm,-,N/A,,Mostly Cloudy,0,2012-12-15 16:35:00
10:55 AM,30.2,26.6,86,29.64,5.0,Calm,Calm,-,N/A,,Mostly Cloudy,0,2012-12-15 16:55:00
11:16 AM,30.2,28.4,93,29.64,5.0,Calm,Calm,-,N/A,,Overcast,0,2012-12-15 17:16:00
11:35 AM,30.2,28.4,93,29.63,5.0,Calm,Calm,-,N/A,,Mostly Cloudy,0,2012-12-15 17:35:00
11:55 AM,30.2,28.4,93,29.63,4.0,Calm,Calm,-,N/A,,Scattered Clouds,0,2012-12-15 17:55:00
12:16 PM,30.2,28.4,93,29.62,3.0,Calm,Calm,-,N/A,,Scattered Clouds,0,2012-12-15 18:16:00
12:35 PM,30.2,28.4,93,29.61,3.0,Calm,Calm,-,N/A,,Mostly Cloudy,0,2012-12-15 18:35:00
12:55 PM,30.2,28.4,93,29.61,4.0,Calm,Calm,-,N/A,,Scattered Clouds,0,2012-12-15 18:55:00
1:15 PM,30.2,28.4,93,29.60,4.0,Calm,Calm,-,N/A,,Clear,0,2012-12-15 19:15:00
1:35 PM,30.2,28.4,93,29.59,5.0,Calm,Calm,-,N/A,,Clear,0,2012-12-15 19:35:00
1:55 PM,30.2,26.6,86,29.59,5.0,NW,9.2,-,N/A,,Clear,320,2012-12-15 19:55:00
2:15 PM,30.2,26.6,86,29.59,5.0,NW,10.4,-,N/A,,Clear,320,2012-12-15 20:15:00
2:35 PM,30.2,26.6,86,29.59,5.0,NW,10.4,-,N/A,,Clear,320,2012-12-15 20:35:00
2:55 PM,30.2,26.6,86,29.59,5.0,NNW,9.2,-,N/A,,Clear,330,2012-12-15 20:55:00
3:16 PM,28.4,26.6,93,29.59,5.0,NNW,6.9,-,N/A,,Clear,340,2012-12-15 21:16:00
3:35 PM,28.4,26.6,93,29.60,5.0,NNW,8.1,-,N/A,,Scattered Clouds,340,2012-12-15 21:35:00
3:56 PM,28.4,26.6,93,29.60,5.0,North,8.1,-,N/A,,Overcast,350,2012-12-15 21:56:00
4:15 PM,28.4,24.8,86,29.60,5.0,NNW,6.9,-,N/A,,Mostly Cloudy,340,2012-12-15 22:15:00
4:36 PM,28.4,24.8,86,29.60,7.0,NNW,5.8,-,N/A,,Scattered Clouds,340,2012-12-15 22:36:00
4:55 PM,26.6,24.8,93,29.61,5.0,NNW,5.8,-,N/A,,Mostly Cloudy,330,2012-12-15 22:55:00
5:15 PM,26.6,24.8,93,29.61,7.0,NNW,9.2,-,N/A,,Overcast,330,2012-12-15 23:15:00
5:35 PM,26.6,24.8,93,29.62,7.0,NW,8.1,-,N/A,,Overcast,320,2012-12-15 23:35:00
5:55 PM,26.6,23.0,86,29.62,5.0,WNW,10.4,-,N/A,,Overcast,300,2012-12-15 23:55:00
6:15 PM,24.8,21.2,86,29.63,5.0,NW,10.4,-,N/A,,Mostly Cloudy,310,2012-12-16 00:15:00
6:35 PM,21.2,19.4,93,29.64,4.0,WNW,11.5,-,N/A,,Scattered Clouds,300,2012-12-16 00:35:00
6:55 PM,19.4,17.6,93,29.64,4.0,NW,9.2,-,N/A,,Scattered Clouds,310,2012-12-16 00:55:00
7:15 PM,19.4,17.6,93,29.64,4.0,WNW,8.1,-,N/A,,Scattered Clouds,300,2012-12-16 01:15:00
7:35 PM,15.8,14.0,93,29.65,3.0,WNW,10.4,-,N/A,,Mostly Cloudy,300,2012-12-16 01:35:00
7:55 PM,15.8,12.2,86,29.65,4.0,NW,9.2,-,N/A,,Scattered Clouds,310,2012-12-16 01:55:00
8:15 PM,14.0,12.2,93,29.66,5.0,WNW,6.9,-,N/A,,Mostly Cloudy,300,2012-12-16 02:15:00
8:35 PM,12.2,12.2,100,29.66,5.0,NW,10.4,-,N/A,,Overcast,310,2012-12-16 02:35:00
8:55 PM,12.2,12.2,100,29.67,3.0,NW,6.9,-,N/A,,Overcast,310,2012-12-16 02:55:00
9:15 PM,12.2,10.4,92,29.67,5.0,NW,9.2,-,N/A,,Overcast,320,2012-12-16 03:15:00
9:35 PM,12.2,10.4,92,29.67,4.0,NW,10.4,-,N/A,,Overcast,310,2012-12-16 03:35:00
9:55 PM,10.4,10.4,100,29.67,4.0,WNW,10.4,-,N/A,,Overcast,290,2012-12-16 03:55:00
10:15 PM,10.4,10.4,100,29.67,0.8,NW,8.1,-,N/A,,Overcast,310,2012-12-16 04:15:00
10:36 PM,12.2,10.4,92,29.67,0.5,NW,10.4,-,N/A,Fog,Light Freezing Fog,310,2012-12-16 04:36:00
10:55 PM,12.2,10.4,92,29.67,0.5,NW,9.2,-,N/A,Fog,Light Freezing Fog,310,2012-12-16 04:55:00
11:15 PM,12.2,10.4,92,29.68,0.8,NW,6.9,-,N/A,,Overcast,320,2012-12-16 05:15:00
11:35 PM,12.2,10.4,92,29.69,0.8,NW,9.2,-,N/A,,Overcast,310,2012-12-16 05:35:00
11:55 PM,10.4,10.4,100,29.69,1.5,NW,8.1,-,N/A,,Overcast,310,2012-12-16 05:55:00